Regional Weather Roundup
Issued by NWS Albany, NY

Home | Current Version | Previous Version | Graphics & Text | Print | Product List | Glossary Off
Versions: 1 2 3 4 5 6 7 8 9 10 11 12 13 14 15 16 17 18 19 20 21 22 23 24 25 26 27 28

000
ASUS41 KALY 280210
RWRALY

NEW YORK STATE HOURLY WEATHER ROUNDUP
NATIONAL WEATHER SERVICE ALBANY NY
1000 PM EDT THU APR 27 2017

NOTE: "FAIR" INDICATES FEW OR NO CLOUDS BELOW 12,000 FEET WITH NO
SIGNIFICANT WEATHER AND/OR NO OBSTRUCTIONS TO VISIBILITY.

NYZ032-033-038>043-046>054-057>066-NYZ062>081-082-084-280300-
EAST


CITY           SKY/WX    TMP DP  RH WIND       PRES   REMARKS
ALBANY         MOCLDY    66  57  72 S15G24    29.85R
GLENS FALLS    CLOUDY    67  56  67 S9        29.83R
POUGHKEEPSIE   CLOUDY    62  57  83 VRB5      29.89R
NEWBURGH         N/A     61  59  94 SE12      29.91R FOG
MONTGOMERY     CLOUDY    62  58  86 S7        29.88R
WHITE PLAINS   DRZL/FOG  58  57  97 E6        29.90S VSB 1/2
ISLIP          FOG       57  57 100 SE7       29.92S VSB 1/4
NEW YORK CITY  CLOUDY    59  57  93 S8        29.90R FOG
CENTRAL PARK   CLOUDY    57  57 100 VRB6      29.93R FOG
$$

NYZ005>009-017-018-044>046-055-056-280300-
CENTRAL


CITY           SKY/WX    TMP DP  RH WIND       PRES   REMARKS
FULTON         CLOUDY    76  58  53 S9        29.69R
SYRACUSE       CLOUDY    75  59  57 S15G24    29.68R
ROME           CLOUDY    67  59  75 E12       29.74S
ELMIRA         CLOUDY    74  58  57 S13       29.73R
BINGHAMTON     CLOUDY    68  58  70 S8        29.79R
MONTICELLO     CLOUDY    59  57  94 SE9       29.90R
$$

NYZ026>034-041>043-087-280300-
NORTH


CITY           SKY/WX    TMP DP  RH WIND       PRES   REMARKS
WATERTOWN      MOCLDY    74  60  61 S10G18    29.65R
FORT DRUM      NOT AVBL
OGDENSBURG     FAIR      76  59  54 S12G20    29.64R
MASSENA        PTCLDY    72  57  59 S6        29.66R
SARANAC LAKE   CLEAR     66  55  67 SE7       29.72F
PLATTSBURGH    CLEAR     67  55  65 SE12G24   29.72S
$$

NYZ001>004-010>016-019>021-085-280300-
WEST


CITY           SKY/WX    TMP DP  RH WIND       PRES   REMARKS
NIAGARA FALLS  LGT RAIN  60  55  83 S10       29.69R
BUFFALO        LGT RAIN  58  56  93 SW12G22   29.70F
DUNKIRK        MOCLDY    58  52  80 SW16      29.74R
JAMESTOWN      MOCLDY    55  48  76 SW14G20   29.78R
WELLSVILLE     MOCLDY    68  59  73 S16G25    29.76R
ROCHESTER      CLOUDY    67  59  75 W9        29.70R
PENN YAN       CLOUDY    72  57  59 S8        29.70R
$$

             KEY
       WCI = WIND CHILL INDEX
       VSB = VISIBILITY
       HX  = HEAT INDEX
$$




USA.gov is the U.S. government's official web portal to all federal, state and local government web resources and services.